192  
ASUS44 KEWX 191612  
RWREWX  
SOUTH TEXAS REGIONAL WEATHER ROUNDUP  
NATIONAL WEATHER SERVICE AUSTIN/SAN ANTONIO TX  
1000 AM CST SUN FEB 19 2017  
 
NOTE: "FAIR" INDICATED FEW OR NO CLOUDS BELOW 12,000 FEET WITH NO  
SIGNIFICANT WEATHER AND/OR S TO VISIBILITY
.  
 
* - THESE STATIONS ARE NOT NWS OR FAA STATIONS...AND ARE NOT SUBJECT  
TO NWS AND FAA QUALITY CONTROL.
 
 
TXZ171-172-183>190-191700-  
TEXAS HILL COUNTRY AND EDWARDS PLATEAU  
 
CITY SKY/WX TMP DP RH WIND PRES REMARKS
 
JUNCTION CLOUDY 69 63 81 SE12 29.85F HAZE  
*LLANO PTSUNNY 70 66 88 CALM 29.90S FOG  
BURNET CLOUDY 70 64 81 SE13G22 29.90R HAZE  
*HORSESHOE BAY N/A 73 66 80 SE6 29.87R  
*KERRVILLE CLOUDY 69 65 88 SE10 29.87R  
*FREDERICKSBRG CLOUDY 69 63 81 SE9 29.87F  
*ROCKSPRINGS CLOUDY 66 63 88 S12 29.88R FOG  
*BOERNE STAGE CLOUDY 68 64 88 SE12G17 29.89S  
*CASTROVILLE CLOUDY 72 68 88 SE9 29.87R  
HONDO CLOUDY 72 67 84 SE10 29.86R HAZE  
*UVALDE CLOUDY 70 66 87 SE8 29.84F FOG  
DEL RIO PTSUNNY 71 65 81 SE16 29.80R HAZE  
LAUGHLIN AFB NOT AVBL  
CARRIZO SPRGS CLOUDY 72 66 83 E7 29.81S HAZE  
*EAGLE PASS PTSUNNY 72 66 83 SE13G20 29.81R HAZE  

 
 
TXZ173-191>194-202-209-217>225-228-191700-  
CENTRAL AND SOUTH CENTRAL TEXAS  
 
CITY SKY/WX TMP DP RH WIND PRES REMARKS
 
GEORGETOWN PTSUNNY 72 64 78 SE8G16 29.88R  
AUSTIN/BERGSTM CLOUDY 75 68 78 SE17 29.87R  
AUSTIN/MABRY CLOUDY 73 68 84 SE10G17 29.89R HAZE  
*AUSTIN/EXEC CLOUDY 73 68 83 SE15G21 29.89R  
*LAGO VISTA CLOUDY 71 67 88 SE9G16 29.90R FOG  
SAN MARCOS CLOUDY 73 68 83 SE16 29.89R FOG  
NEW BRAUNFELS CLOUDY 75 68 78 SE16 29.86R HAZE  
RANDOLPH AFB CLOUDY 74 71 88 SE12 29.86S  
PT SAN ANTONIO CLOUDY 74 68 81 SE12 29.84S  
SAN ANTONIO CLOUDY 73 67 81 SE14 29.86S  
STINSON FIELD CLOUDY 76 68 76 SE14 29.83F  
*PLEASANTON CLOUDY 75 68 77 SE12 29.85R  
*LA GRANGE CLOUDY 76 70 81 SE13 29.88S  
*GIDDINGS CLOUDY N/A N/A N/A SE16G23 29.90F  
*GONZALES CLOUDY 75 71 87 SE10G16 29.88R  

 
 
TXZ163>164-176>182-195>201-210>213-226-227-235-191700-  
SOUTHEAST TEXAS  
 
CITY SKY/WX TMP DP RH WIND PRES REMARKS
 
COLLEGE STN CLOUDY 75 68 78 SE16 29.92S HAZE  
*BRYAN CLOUDY 73 69 86 SE14G21 29.93F  
*CALDWELL NOT AVBL  
*CROCKETT CLOUDY 68 64 88 SE7 30.00R FOG  
*BRENHAM CLOUDY 76 69 80 SE15G24 29.92S  
HUNTSVILLE CLOUDY 71 67 87 SE5 29.96S FOG  
CONROE CLOUDY 69 68 96 SE8 29.98R FOG  
HOUSTON BUSH CLOUDY 72 68 87 SE15 29.97R FOG  
HOUSTON HOBBY LGT RAIN 69 67 93 E7 29.97R FOG  
*HOUSTON SW AP PTSUNNY 73 69 88 E14 29.97R  
PEARLAND LGT RAIN 72 69 90 SE9 29.99R FOG  
HOUSTON HOOKS CLOUDY 73 69 87 SE10 29.96R  
ELLINGTON FLD CLOUDY 68 68 100 E12 29.99R FOG  
SUGAR LAND CLOUDY 75 69 81 SE15 29.95S  
*HOUSTON EXEC PTSUNNY 73 68 83 SE15G23 29.95S HAZE  
*CLEVELAND MUN CLOUDY 69 67 95 SE6 30.00R FOG  
*WHARTON PTSUNNY 75 68 78 SE15G23 29.93S  
*COLUMBUS CLOUDY 74 69 83 SE14G23 29.92S  
*EAGLE LAKE NOT AVBL  

 
 
TXZ214>216-236>238-191700-  
THE UPPER TEXAS COAST  
 
CITY SKY/WX TMP DP RH WIND PRES REMARKS
 
*ORANGE CLOUDY 71 69 92 E6 30.03R FOG  
PORT ARTHUR CLOUDY 71 66 84 E10 30.00R  
GALVESTON CLOUDY 71 68 90 E13 29.98R FOG  
ANGLETON CLOUDY 75 70 84 SE14G23 29.96R  
*BAY CITY CLOUDY 75 71 86 SE9G16 29.94S  
PALACIOS MOSUNNY 75 69 81 E18 29.91S  

 
 
TXZ229>234-239>247-191700-  
TEXAS COASTAL BEND AND RIO GRANDE PLAINS  
 
CITY SKY/WX TMP DP RH WIND PRES REMARKS
 
VICTORIA CLOUDY 76 69 79 SE22G29 29.88S  
*BEEVILLE CLOUDY 76 76 100 SE18G24 29.84R  
ROCKPORT CLOUDY 73 69 87 SE16 29.87R FOG  
*PORT ARANSAS CLOUDY 71 70 95 SE13 29.87S FOG  
*PORT LAVACA PTSUNNY 73 71 93 SE18G24 29.90R FOG  
*INGLESIDE CLOUDY 75 71 89 E10 29.86S  
CORPUS CHRISTI CLOUDY 77 71 82 SE25 29.84S  
CORPUS NAS CLOUDY 74 72 93 SE18 29.85S FOG  
*ROBSTOWN CLOUDY 77 71 81 SE24G30 29.84S  
ALICE CLOUDY 76 70 82 SE18G25 29.81S  
KINGSVILLE NAS CLOUDY 77 72 84 SE18G29 29.82S  
COTULLA CLOUDY 76 67 73 SE12 29.83R  
*FAITH RANCH CLOUDY 73 66 78 E6 29.81R  
LAREDO CLOUDY 78 67 68 SE15 29.80S  

 
 
TXZ248>255-191700-  
DEEP SOUTH TEXAS  
 
CITY SKY/WX TMP DP RH WIND PRES REMARKS
 
BROWNSVILLE PTSUNNY 80 70 71 SE24G32 29.84R  
PORT ISABEL PTSUNNY 80 71 74 SE25G31 29.83R  
*SOUTH PADRE NOT AVBL  
HARLINGEN PTSUNNY 80 71 74 S23G29 29.82R  
*HEBBRONVILLE CLOUDY 74 66 77 S14 29.83R  
MCALLEN CLOUDY 80 69 69 SE16G22 29.82R  
*WESLACO CLOUDY 79 69 72 S20G28 29.80R HAZE  
FALFURRIAS CLOUDY 78 69 73 SE17 29.81R  
EDINBURG CLOUDY 81 69 66 SE14G21 29.82R  
*ZAPATA PTSUNNY 76 65 70 SE10G17 29.79R HAZE  

 
 
TXZ213>215-236>238-242>244-246-247-251-254-255-191700-  
CMAN STATIONS  
 
STATION/POSITION TIME TEMP WIND PRES WAVE
 
AIR SEA DIR/SP/G HT/PER  
(UTC) (F) (DEG/KT/KT) (MB) (FT/S)  
SABINE PASS 1548 66 67 100/ 14/ 17 1017.4  
SEA RIM ST PARK 1600 67 100/ 14/ 19 1016.3  
NORTH JETTY/GLS 1548 90/ 14/ 16 N/A  
EAGLE POINT 1548 67 66 110/ 12/ 13 1015.2  
MORGANS POINT 1548 69 66 100/ 11/ 13 1015.3  
MISSION/ARANSAS 1500 72 1011.0  
PORT O'CONNOR 1548 69 90/ 16/ 18 1012.1  
PORT ARANSAS 1600 70 68 100/ 14/ 16 1011.1  
MALAQUITE BEACH 1548 70 70 110/ 11/ 13 1011.5  
BAFFIN BAY 1548 72 72 110/ 15/ 19 1010.6  
PORT ISABEL 1548 75 70 150/ 13/ 21 1010.5  

 
 
 
CLICK HERE TO GO TO PREVIOUS BULLETINS.

The Nexlab TX Page Main Text Page